Ord, NE

5:50 PM CDT on October 01, 2016 (GMT -0500)
Sharp

Weather History for KODX - October, 2010

Change the Weather History Date:

Sunday, October 17, 2010

  Actual Average Record
Temperature  
Mean Temperature 45 °F 49 °F  
Max Temperature 63 °F 62 °F 78 °F (2005)
Min Temperature 27 °F 36 °F 19 °F (1999)
Degree Days  
Heating Degree Days 20 16  
Month to date heating degree days 172 220  
Since 1 July heating degree days 277 357  
Cooling Degree Days 0 0  
Month to date cooling degree days 2 6  
Year to date cooling degree days 866 844  
Moisture  
Dew Point 30 °F    
Average Humidity 59    
Maximum Humidity 89    
Minimum Humidity 29    
Precipitation  
Precipitation 0.00 in 0.07 in 1.07 in (1968)
Month to date precipitation 0.20 1.17  
Year to date precipitation 24.57 22.52  
Sea Level Pressure  
Sea Level Pressure 30.14 in    
Wind  
Wind Speed 4 mph (SE)    
Max Wind Speed 15 mph    
Max Gust Speed 20 mph    
Visibility 10 miles    
Events      
T = Trace of Precipitation, MM = Missing Value Source: NWS Daily Summary

Daily Weather History Graph

Daily Weather History Graph

Search for Another Location

Airport or City:

Trip Planner

Search our weather history database for the weather conditions in past years. The results will help you decide how hot, cold, wet, or windy it might be!

Date:

Astronomy

Oct. 17, 2010 Rise Set
Actual Time 7:50 AM CDT 6:51 PM CDT
Civil Twilight 7:22 AM CDT 7:19 PM CDT
Nautical Twilight 6:49 AM CDT 7:51 PM CDT
Astronomical Twilight 6:17 AM CDT 8:23 PM CDT
Moon 4:15 PM CDT (10/17) 2:39 AM CDT (10/17)
Length of Visible Light 11h 57m
Length of Day
11h 01m
Waxing Gibbous, 76% of the Moon is Illuminated
Oct 17
Waxing Gibbous
Oct 22
Full
Oct 30
Last Quarter
Nov 5
New
Nov 13
First Quarter

Hourly Weather History & Observations

Time (CDT) Temp. Windchill Dew Point Humidity Pressure Visibility Wind Dir Wind Speed Gust Speed Precip Events Conditions
12:53 AM 36.0 °F 32.1 °F 28.0 °F 73% 30.22 in 10.0 mi NW 4.6 mph - N/A   Clear
1:53 AM 32.0 °F - 28.0 °F 85% 30.23 in 10.0 mi Calm Calm - N/A   Clear
2:53 AM 33.1 °F - 28.0 °F 82% 30.22 in 10.0 mi Calm Calm - N/A   Clear
3:53 AM 32.0 °F - 27.0 °F 82% 30.22 in 10.0 mi Calm Calm - N/A   Clear
4:53 AM 30.2 °F - 26.6 °F 86% 30.19 in 10.0 mi Calm Calm - N/A   Clear
5:53 AM 30.0 °F - 27.0 °F 88% 30.23 in 10.0 mi Calm Calm - N/A   Clear
6:53 AM 30.0 °F - 26.1 °F 85% 30.23 in 10.0 mi Calm Calm - N/A   Clear
7:53 AM 28.0 °F - 25.0 °F 88% 30.23 in 10.0 mi Calm Calm - N/A   Clear
8:53 AM 33.1 °F - 30.0 °F 89% 30.23 in 10.0 mi Calm Calm - N/A   Clear
9:53 AM 46.9 °F - 30.9 °F 54% 30.21 in 10.0 mi SE 5.8 mph - N/A   Clear
10:53 AM 53.1 °F - 28.9 °F 40% 30.19 in 10.0 mi SSE 13.8 mph - N/A   Clear
11:53 AM 55.9 °F - 28.9 °F 36% 30.16 in 10.0 mi SE 10.4 mph - N/A   Clear
12:53 PM 59.0 °F - 28.9 °F 32% 30.13 in 10.0 mi SE 10.4 mph 19.6 mph N/A   Clear
1:53 PM 61.0 °F - 28.0 °F 29% 30.10 in 10.0 mi SSE 8.1 mph - N/A   Clear
2:53 PM 61.0 °F - 28.9 °F 30% 30.07 in 10.0 mi SE 6.9 mph - N/A   Clear
3:53 PM 63.0 °F - 30.0 °F 29% 30.04 in 10.0 mi SE 10.4 mph - N/A   Clear
4:53 PM 62.1 °F - 30.0 °F 30% 30.02 in 10.0 mi SE 8.1 mph - N/A   Clear
5:53 PM 61.0 °F - 32.0 °F 34% 30.01 in 10.0 mi ESE 5.8 mph - N/A   Clear
6:53 PM 55.9 °F - 34.0 °F 44% 30.03 in 10.0 mi East 3.5 mph - N/A   Clear
7:53 PM 46.9 °F - 35.1 °F 63% 30.05 in 10.0 mi Calm Calm - N/A   Clear
8:53 PM 46.0 °F - 33.1 °F 61% 30.07 in 10.0 mi Calm Calm - N/A   Clear
9:53 PM 44.1 °F - 32.0 °F 63% 30.06 in 10.0 mi Calm Calm - N/A   Clear
10:53 PM 39.9 °F - 34.0 °F 79% 30.06 in 10.0 mi Calm Calm - N/A   Clear
11:53 PM 45.0 °F - 37.0 °F 74% 30.05 in 10.0 mi Calm Calm - N/A   Scattered Clouds